Location: Doazon
(43.4500°N, 0.5500°W)
Time: 16:59:53
(UTC+00:00)

Cosmos 2208 Rocket - Pass Details

Date: 05 December 2025
Orbit: 751 x 801 km, 74.0° (Epoch: 22 January)

Event Time Altitude Azimuth Distance (km) Brightness Sun altitude
Rises 17:33:03 0° 343° (NNW) 3,209 7.2 -11.8°
Reaches altitude 10° 17:35:28 10° 349° (NNW) 2,281 6.4 -12.2°
Maximum altitude 17:40:31 53° 66° (ENE) 928 4.1 -13.1°
Drops below altitude 10° 17:45:33 10° 143° (SE) 2,278 6.3 -13.9°
Sets 17:47:58 0° 148° (SSE) 3,205 7.1 -14.4°
